Location: Unspecified
(51.5204°N, 0.0000°E)
Time: 03:07:18
(UTC+00:00)

ISS - Visible Passes

Search period start: 19 November 2019 00:00
Search period end: 29 November 2019 00:00
Orbit: 412 x 421 km, 51.6° (Epoch: 19 November)

Date Brightness Start Highest point End Pass type
(mag) Time Alt. Az. Time Alt. Az. Time Alt. Az.
23 Nov -1.8 18:14:58 10° SSW 18:16:38 20° S 18:16:38 20° S visible
24 Nov -1.8 17:27:19 10° S 17:29:27 16° SE 17:30:19 15° ESE visible
24 Nov -1.0 19:02:24 10° WSW 19:03:14 16° SW 19:03:14 16° SW visible
25 Nov -1.3 16:40:27 10° SSE 16:41:16 11° SE 16:42:06 10° ESE visible
25 Nov -2.8 18:14:08 10° SW 18:16:51 39° S 18:16:51 39° S visible
26 Nov -2.6 17:26:00 10° SSW 17:29:00 30° SSE 17:30:24 22° ESE visible
26 Nov -1.1 19:02:08 10° WSW 19:03:18 20° WSW 19:03:18 20° WSW visible
27 Nov -2.0 16:38:03 10° SSW 16:40:42 22° SE 16:43:21 10° E visible
27 Nov -3.5 18:13:43 10° WSW 18:16:48 65° SSW 18:16:48 65° SSW visible
28 Nov -3.4 17:25:22 10° WSW 17:28:38 54° SSE 17:30:16 26° E visible
28 Nov -1.1 19:01:58 10° W 19:03:09 20° W 19:03:09 20° W visible
